EHI
0 0 0 0 0 0 1 1 1 1 1 1 7 18 24 23 26 34 39 41 36 32 32 31 28 26 23 18 15 16 15 9 2 0 1 2 2 2 1 0 0 0 0 0
0 0 0 0 0 0 0 0 0 1 1 3 8 16 22 22 23 29 36 37 33 29 28 27 25 23 20 16 14 14 11 5 1 0 0 1 1 1 1 0 0 0 0 0
0 0 0 0 0 0 0 0 0 1 3 6 9 12 16 19 22 26 31 31 29 26 23 22 21 20 16 14 12 10 5 2 0 0 0 0 0 0 0 0 0 0 0 0
0 0 0 0 0 0 0 0 1 3 5 6 6 6 10 17 25 29 29 29 28 25 21 19 19 17 13 12 11 8 4 1 0 0 0 0 0 0 0 0 0 0 0 0
0 0 0 0 0 0 0 0 1 2 3 3 2 2 5 12 21 27 28 27 26 24 21 18 16 14 11 10 9 7 5 2 0 0 0 0 0 0 0 0 0 0 0 0
0 0 0 0 0 0 0 0 0 1 1 1 1 1 2 6 11 18 23 24 23 22 21 19 17 13 10 9 9 8 6 3 0 0 0 0 0 0 0 0 0 0 0 0
0 0 0 0 0 0 0 0 0 0 0 0 0 1 2 4 7 12 18 21 20 21 22 21 18 13 10 9 8 8 5 2 0 0 0 0 0 0 0 0 0 0 0 0
0 0 0 0 0 0 0 0 0 0 0 0 0 1 3 5 8 10 15 18 20 21 21 19 14 10 9 8 7 6 4 1 0 0 0 0 0 0 0 0 0 0 0 0
0 0 0 0 0 0 0 0 0 0 0 0 0 1 3 5 7 10 13 17 19 20 18 13 9 6 6 6 6 4 3 1 0 0 0 0 0 0 0 0 0 0 0 0
0 0 0 0 0 0 0 0 0 0 0 0 0 1 1 3 6 9 13 17 18 17 13 8 4 2 3 4 4 3 2 1 0 0 0 0 0 0 0 0 0 0 0 0
0 0 0 0 0 0 0 0 0 0 0 0 0 0 0 1 4 8 12 15 16 13 9 4 1 0 1 3 3 3 2 1 0 0 0 0 0 0 0 0 0 0 0 0
0 0 0 0 0 0 0 0 0 0 0 0 0 0 1 2 4 7 9 11 10 8 5 2 1 0 1 2 3 3 1 0 0 0 0 0 0 0 0 0 0 0 0 0
0 0 0 0 0 0 0 0 0 0 0 0 0 0 2 4 5 6 8 8 6 4 3 1 0 0 0 2 3 2 1 0 0 0 0 0 0 0 0 0 0 0 0 0
0 0 0 0 0 0 0 0 0 0 0 0 0 0 1 3 4 5 8 7 5 3 1 0 0 0 0 1 2 1 0 0 0 0 0 0 0 0 0 0 0 0 0 0
0 0 0 0 0 0 0 0 0 0 0 0 0 0 0 1 2 5 7 6 4 1 0 0 0 0 0 1 1 0 0 0 0 0 0 0 0 0 0 0 0 0 0 0
0 0 0 0 0 0 0 0 0 0 0 0 0 0 0 1 3 6 7 5 3 1 0 0 0 0 0 0 0 0 0 0 0 0 0 0 0 0 0 0 0 0 0 0
0 0 0 0 0 0 0 0 0 0 0 0 0 0 0 1 3 6 6 5 3 1 0 0 0 0 0 0 0 0 0 0 0 0 0 0 0 0 0 0 0 0 0 0
0 0 0 0 0 0 0 0 0 0 0 0 0 0 1 2 3 4 4 3 1 0 0 0 0 0 0 0 0 0 0 0 0 0 0 0 0 0 0 0 0 0 0 0
0 0 0 0 0 0 0 0 0 0 0 0 0 0 1 2 3 2 1 1 0 0 0 0 0 0 0 0 0 0 0 0 0 0 0 0 0 0 0 0 0 0 0 0
0 0 0 0 0 0 0 0 0 0 0 0 0 0 1 2 2 1 0 0 0 0 0 0 0 0 0 0 0 0 0 0 0 0 0 0 0 0 0 0 0 0 0 0
0 0 0 0 0 0 0 0 0 0 0 0 0 0 1 2 2 1 0 0 0 0 0 0 0 0 0 0 0 0 0 0 0 0 0 0 0 0 0 0 0 0 0 0
0 0 0 0 0 0 0 0 0 0 0 0 0 0 0 1 1 0 0 0 0 0 0 0 0 0 0 0 0 0 0 0 0 0 0 0 0 0 0 0 0 0 0 0
0 0 0 0 0 0 0 0 0 0 0 0 0 0 0 0 0 1 1 1 0 0 0 0 0 0 0 0 0 0 0 0 0 0 0 0 0 0 0 0 0 0 0 0
0 0 0 0 0 0 0 0 0 0 0 0 0 0 0 0 0 1 1 1 0 0 0 0 0 0 0 0 0 0 0 0 0 0 0 0 0 0 0 0 0 0 0 0
0 0 0 0 0 0 0 0 0 0 0 0 0 0 0 0 0 0 0 0 0 0 0 0 0 0 0 0 0 0 0 0 0 0 0 0 0 0 0 0 0 0 0 0
0 0 0 0 0 0 0 0 0 0 0 0 0 0 0 0 0 0 0 0 0 0 0 0 0 0 0 0 0 0 0 0 0 0 0 0 0 0 0 0 0 0 0 0
Wind_Speed
1 3 3 7 5 6 4 3 4 6 4 5 7 10 11 11 11 11 11 12 11 10 8 7 8 8 7 5 5 5 5 4 3 2 2 2 2 1 1 1 2 2 2 2
4 5 10 7 6 5 4 4 4 5 3 5 7 7 8 10 11 12 14 13 12 10 9 8 7 7 7 6 4 4 4 4 3 2 1 2 2 2 1 1 3 3 3 2
6 9 7 5 6 5 5 4 4 3 3 5 7 2 3 4 7 9 10 11 11 13 12 9 8 6 7 6 4 4 4 4 3 3 3 3 3 2 2 2 2 3 3 3
6 9 6 5 5 4 6 5 4 2 3 1 3 3 3 4 5 9 9 10 10 11 10 9 8 7 6 5 5 5 4 4 3 4 4 4 3 2 1 0 1 3 3 3
7 5 4 5 7 5 6 4 2 2 3 2 1 4 3 2 4 8 11 12 10 10 10 9 8 7 6 6 5 5 5 4 4 4 3 4 3 2 1 2 3 3 3 4
8 6 5 5 5 3 2 3 6 6 6 2 3 3 2 2 6 8 10 12 11 11 10 9 8 7 6 5 5 5 5 4 3 4 4 4 4 3 3 3 3 2 2 3
7 6 3 1 2 4 5 7 5 6 5 3 2 3 2 4 4 8 11 11 10 10 10 10 10 8 7 6 5 4 5 4 3 4 4 3 3 3 3 2 2 2 2 2
3 6 4 2 2 3 1 8 7 4 3 3 3 1 2 1 3 6 8 8 9 9 8 9 9 8 8 7 5 5 4 3 3 4 4 4 3 2 2 2 2 2 1 1
3 5 5 3 1 4 2 2 7 7 1 1 1 0 1 3 6 7 9 9 9 9 8 9 9 7 7 6 5 4 5 4 3 4 4 4 4 3 3 3 2 2 1 1
4 3 6 4 5 4 4 5 6 5 3 1 1 1 3 2 3 6 8 9 9 9 8 8 7 7 6 5 4 4 4 4 3 4 3 4 4 4 3 3 4 3 3 3
2 2 5 4 2 1 3 3 4 4 5 5 2 4 3 5 5 6 7 8 10 9 8 7 6 5 6 5 4 4 4 4 4 4 4 4 4 3 4 4 3 3 3 3
2 4 1 4 3 0 3 3 5 4 2 3 4 4 2 4 5 6 7 7 9 9 8 7 6 6 6 5 4 4 4 4 3 4 4 4 3 4 4 4 3 3 3 3
3 5 3 6 7 6 3 1 2 5 4 3 4 3 0 4 5 6 8 7 7 8 7 7 6 6 5 5 4 4 4 3 3 4 4 4 3 3 3 3 3 3 3 3
6 5 5 5 5 2 3 2 1 5 4 3 4 5 3 5 7 6 7 8 8 7 7 7 6 5 5 5 5 4 3 3 3 4 3 3 2 2 2 2 3 3 3 3
6 3 2 3 2 1 0 2 2 2 4 5 4 5 7 7 9 8 8 8 9 7 7 7 6 5 5 5 4 4 3 3 3 3 3 2 1 2 2 2 2 3 3 4
4 3 1 2 1 1 2 3 3 2 3 5 4 2 2 5 7 8 8 9 9 8 7 7 6 6 6 5 5 4 3 3 3 3 2 2 2 2 2 2 2 3 3 4
2 4 2 2 3 3 2 2 1 2 3 6 5 5 7 7 8 9 9 8 8 7 7 7 7 6 6 5 5 4 4 3 3 3 3 3 3 3 2 2 3 3 3 3
5 4 3 1 3 1 4 1 5 5 2 2 4 7 9 8 7 6 6 7 7 7 7 7 6 5 4 4 4 4 4 4 4 3 3 3 3 3 2 3 2 2 2 2
6 6 4 3 1 1 2 1 3 4 1 3 7 8 7 8 6 3 3 5 7 7 7 6 6 5 4 4 5 5 4 4 4 4 3 3 4 3 3 2 1 1 1 1
4 5 5 3 2 3 5 2 3 6 1 3 8 10 9 8 5 4 5 6 6 6 5 5 5 5 5 4 5 5 4 4 4 3 3 3 4 3 2 2 1 1 1 1
2 2 3 3 2 4 4 2 2 2 6 6 8 10 9 6 5 6 8 7 7 6 6 5 6 5 4 4 5 5 5 4 4 3 3 3 3 3 2 1 1 1 1 1
4 3 2 3 2 5 3 1 3 5 4 8 7 8 7 6 8 8 8 8 8 7 6 6 5 4 3 4 6 5 4 4 4 4 3 3 2 2 2 2 1 1 1 2
4 6 5 5 6 5 1 3 3 5 7 5 6 8 10 10 9 8 8 8 7 7 6 5 6 5 4 4 5 5 3 4 4 4 3 2 2 1 1 2 1 1 1 1
1 3 4 2 1 2 4 5 4 6 7 7 9 10 10 10 10 9 8 7 6 6 6 5 6 6 4 3 4 4 4 4 5 4 3 2 2 1 1 1 1 1 1 1
3 3 3 2 3 3 3 5 6 7 9 10 9 8 9 11 10 8 7 7 6 5 5 5 6 6 5 4 4 4 4 5 5 3 2 2 1 1 0 1 1 1 2 3
2 6 6 6 7 6 5 5 8 9 10 10 10 8 8 9 9 8 7 6 6 6 5 5 5 6 5 5 4 4 4 5 5 3 2 2 1 1 1 1 2 3 3 4
Wind_Direction
312 55 263 250 225 212 230 248 261 256 234 149 152 155 170 167 158 156 153 148 144 139 134 126 116 109 104 96 90 88 85 82 96 106 117 115 102 87 59 41 47 49 46 48
16 270 246 248 268 259 254 268 278 286 269 143 150 159 172 169 172 170 162 159 154 145 138 133 126 117 108 103 101 93 84 81 83 93 111 114 110 92 82 37 31 34 42 38
216 248 255 241 262 269 272 234 233 251 26 72 114 108 172 173 162 163 160 159 156 154 152 146 134 123 114 111 111 107 91 77 70 75 82 85 69 56 43 29 19 16 33 36
251 255 261 244 243 220 259 240 219 200 107 231 136 169 246 192 159 161 163 162 162 157 150 144 137 131 125 119 111 99 90 76 68 75 89 103 108 103 90 76 43 26 32 31
270 272 258 245 241 219 228 233 206 161 120 77 32 128 265 131 174 181 172 169 164 157 150 145 140 132 122 115 108 98 87 75 71 77 91 97 94 100 83 66 65 50 29 25
259 266 229 225 249 209 187 52 32 44 69 50 263 140 264 241 216 186 174 170 163 155 146 138 130 121 113 106 99 91 86 74 67 74 77 89 98 97 83 67 66 50 29 17
315 305 294 276 347 354 75 82 35 6 17 261 285 110 251 263 210 176 173 169 158 150 143 140 135 130 122 113 107 99 92 78 71 74 73 82 91 97 99 100 85 71 41 15
320 304 306 324 193 200 174 130 149 181 216 278 356 102 271 348 121 132 143 146 140 141 142 142 139 136 130 125 121 114 103 93 83 83 76 68 69 79 88 97 101 88 75 8
217 271 297 309 271 152 138 142 160 133 130 35 319 32 321 55 88 113 124 128 140 147 147 146 140 136 134 132 129 125 117 103 90 85 79 70 67 74 78 74 68 62 42 37
184 268 304 321 27 29 129 143 88 103 137 230 290 242 235 203 148 137 136 144 146 141 139 143 137 136 132 131 125 116 117 114 103 88 83 83 69 67 68 65 54 46 33 35
136 155 317 4 35 348 47 58 94 111 143 153 204 257 236 190 166 156 147 145 141 138 138 138 137 132 128 120 119 117 112 104 96 88 84 78 69 62 59 55 45 43 36 37
134 119 278 279 280 103 123 148 136 143 199 159 161 249 297 166 141 139 137 138 139 136 136 139 140 131 128 125 123 120 118 113 109 103 93 82 70 63 55 45 35 38 34 32
112 101 58 347 347 4 27 24 130 131 117 140 159 232 131 112 113 128 133 135 136 135 137 138 140 136 137 132 123 120 120 118 115 109 100 87 71 63 54 44 36 35 35 35
111 101 144 184 227 263 312 329 54 114 128 175 193 180 173 154 142 138 139 136 136 142 143 142 139 136 132 130 129 129 119 118 121 118 113 104 93 83 71 60 48 42 42 49
93 110 162 206 246 242 257 358 22 116 161 166 185 172 193 180 158 152 146 140 140 149 149 149 146 141 136 133 135 133 134 128 127 126 124 124 117 98 85 72 55 48 47 55
81 115 84 342 335 27 39 42 51 70 110 120 122 167 169 138 131 143 153 151 153 162 157 153 152 148 146 146 146 140 139 136 128 131 138 137 120 99 93 84 70 61 51 50
105 116 94 301 309 34 10 303 103 110 138 150 179 191 143 134 149 159 162 159 161 164 159 159 157 156 155 155 155 150 148 137 121 124 133 134 122 111 106 97 84 71 58 58
137 121 123 147 31 43 255 241 122 111 96 141 135 144 150 151 151 148 151 156 159 157 155 156 156 156 160 158 151 145 137 132 129 132 131 125 118 111 103 95 88 78 71 69
141 134 122 116 116 263 256 203 159 130 121 152 137 139 133 125 107 115 151 144 151 154 153 154 154 149 148 152 151 138 134 134 135 137 135 130 128 123 113 101 90 87 86 70
77 100 112 120 143 225 249 260 150 107 147 195 148 148 149 135 146 191 164 137 130 127 128 134 138 130 132 141 134 129 134 136 140 145 145 141 136 132 135 134 115 87 97 95
50 58 113 144 186 253 261 242 113 148 218 183 159 157 158 168 177 155 141 135 134 132 129 130 131 132 142 137 128 129 136 149 155 144 133 124 125 138 141 120 98 97 78 67
164 152 164 149 178 244 277 87 170 205 163 150 152 154 146 131 121 125 134 136 135 132 132 134 132 134 137 132 129 131 149 161 142 128 120 115 113 130 124 109 90 84 84 71
169 178 170 175 205 229 219 152 169 143 130 136 139 138 132 129 131 132 137 141 140 141 143 139 138 136 136 138 135 140 162 147 131 122 121 117 98 80 110 121 127 84 68 77
191 124 107 107 212 153 112 108 116 123 122 126 131 132 132 132 137 135 139 143 142 141 145 141 139 142 151 153 145 153 152 137 131 132 137 138 121 74 48 68 150 156 178 193
187 121 113 137 167 109 109 128 125 117 117 119 122 127 134 135 138 139 144 149 150 147 149 149 152 156 165 160 154 159 151 141 140 145 147 148 151 157 92 352 270 211 231 213
198 159 157 194 194 161 178 162 133 129 132 134 129 126 133 140 143 143 148 152 153 153 150 151 156 160 166 163 165 167 160 152 150 158 168 170 175 186 183 204 325 312 268 272